Location: Ansan
(43.6898°N, 0.7731°E)
Time: 13:26:00
(UTC+00:00)

RESURS DK-1 - Pass Details

Date: 15 May 2026
Orbit: 522 x 531 km, 69.9° (Epoch: 10 June)

Event Time Altitude Azimuth Distance (km) Brightness Sun altitude
Rises 22:14:58 0° 343° (NNW) 2,680 7.2 -23.3°
Reaches altitude 10° 22:17:25 10° 356° (N) 1,787 5.9 -23.5°
Maximum altitude 22:20:48 26° 54° (NE) 1,066 3.8 -23.8°
Enters shadow 22:20:55 26° 57° (ENE) 1,067 3.8 -23.8°
